Flag for Spain Weather past 2 weeks in Madrid, Spain

Now
73 °F

Scattered clouds.


Feels Like: 77 °F
Forecast: 60 / 73 °F
Wind: 10 mph from Southwest

Location: Madrid / Cuatro Vientos

Current Time: Sep 18, 2014 at 6:12:21 PM

Latest Report: Sep 18, 2014 at 5:30 PM


Visibility: N/A

Pressure: 29.83 "Hg

Humidity: 36%

Dew point: 45 °F

Location of MadridLocation

Historic Weather in Madrid — Graph

°F

Madrid temperature yesterday

Maximum temperature yesterday: 79 °F (at 3:30 PM)
Minimum temperature yesterday: 61 °F (at 7:00 AM)
Average temperature yesterday: 69 °F

Past Weeks' High & Low Weather Summary

 TemperatureHumidityPressure
High91 °F (Sep 3, 5:00 PM)94% (Sep 17, 7:00 AM)30.09 "Hg (Sep 17, 7:00 AM)
Low59 °F (Sep 15, 7:00 AM)13% (Sep 5, 6:00 PM)29.74 "Hg (Sep 16, 5:00 PM)
Average76 °F41%29.97 "Hg
* Reported Sep 3 5:00 PM — Sep 18 5:00 PM, Madrid, Weather by CustomWeather, © 2014

Note: Actual official high and low records may vary slightly from our data, if they occured in-between our weather recording intervals... More about our weather records

Advertising

Madrid weather history for previous 24 hours

 ConditionsComfort  
Time TempWeatherWind HumidityBarometerVisibility
5:00 PM
Sep 18
73 °FScattered clouds.10 mph36%29.83 "HgN/A
4:30 PM75 °FScattered clouds.13 mph34%29.83 "HgN/A
4:00 PM75 °FScattered clouds.13 mph34%29.83 "HgN/A
3:30 PM75 °FScattered clouds.14 mph34%29.86 "HgN/A
3:00 PM77 °FScattered clouds.13 mph34%29.86 "HgN/A
2:30 PM77 °FScattered clouds.10 mph39%29.86 "HgN/A
2:00 PM72 °FScattered clouds.10 mph47%29.89 "HgN/A
1:30 PM70 °FScattered clouds.10 mph53%29.89 "HgN/A
1:00 PM72 °FScattered clouds.13 mph53%29.89 "HgN/A
12:30 PM68 °FScattered clouds.9 mph64%29.89 "HgN/A
12:00 PM66 °FScattered clouds.10 mph68%29.89 "HgN/A
11:30 AM64 °FScattered clouds.8 mph73%29.89 "HgN/A
11:00 AM66 °FScattered clouds.7 mph68%29.89 "HgN/A
10:30 AM68 °FScattered clouds.8 mph69%29.89 "HgN/A
10:00 AM66 °FScattered clouds.8 mph73%29.89 "HgN/A
9:30 AM63 °FScattered clouds.3 mph83%29.89 "HgN/A
9:00 AM61 °FScattered clouds.5 mph88%29.89 "HgN/A
8:30 AM61 °FPassing clouds.3 mph88%29.86 "HgN/A
8:00 AM61 °FPassing clouds.3 mph88%29.86 "HgN/A
7:30 AM61 °FPassing clouds.2 mph83%29.86 "HgN/A
7:00 AM61 °FClear.1 mph83%29.86 "Hg10 mi
10:00 PM
Sep 17
64 °FPassing clouds.5 mph73%29.86 "HgN/A
9:30 PM66 °FPartly cloudy.6 mph68%29.83 "HgN/A
9:00 PM66 °FBroken clouds.8 mph60%29.83 "HgN/A
8:30 PM68 °FBroken clouds.7 mph60%29.83 "HgN/A
8:00 PM68 °FBroken clouds.8 mph56%29.83 "HgN/A
7:30 PM70 °FScattered clouds.9 mph53%29.83 "HgN/A
7:00 PM72 °FBroken clouds.8 mph47%29.80 "HgN/A
6:30 PM70 °FBroken clouds.9 mph50%29.80 "HgN/A
6:00 PM70 °FBroken clouds.13 mph50%29.80 "HgN/A
Weather by CustomWeather, © 2014

See weather overviewHow to use our weather pages